| time (UTC) | temp C | wind direction | speed KPH | gust KPH | rain 1hr cm | rain 24hr cm | rain mn cm | humidity % | barometer mb |
| 20260507174638 | 17 | 53 | 3.2 | 6.4 | 0.00 | 0.74 | 0.74 | 63 | 999.7 |
| 20260507174136 | 18 | 315 | 3.2 | 8.0 | 0.00 | 0.74 | 0.74 | 60 | 999.8 |
| 20260507173633 | 17 | 235 | 3.2 | 11.3 | 0.00 | 0.74 | 0.74 | 63 | 999.6 |
| 20260507173130 | 17 | 247 | 6.4 | 6.4 | 0.00 | 0.74 | 0.74 | 61 | 999.6 |
| 20260507172626 | 17 | 270 | 3.2 | 6.4 | 0.00 | 0.74 | 0.74 | 64 | 999.9 |
| 20260507172124 | 16 | 17 | 4.8 | 6.4 | 0.00 | 0.74 | 0.74 | 65 | 1000.0 |
| 20260507171619 | 17 | 292 | 3.2 | 8.0 | 0.00 | 0.74 | 0.74 | 65 | 1000.0 |
| 20260507171116 | 16 | 247 | 3.2 | 9.7 | 0.00 | 0.74 | 0.74 | 67 | 1000.1 |
| 20260507170613 | 16 | 275 | 4.8 | 11.3 | 0.00 | 0.74 | 0.74 | 67 | 1000.1 |
| 20260507170110 | 17 | 311 | 8.0 | 12.9 | 0.00 | 0.74 | 0.74 | 65 | 1000.1 |
| 20260507165605 | 16 | 303 | 3.2 | 8.0 | 0.00 | 0.74 | 0.74 | 66 | 1000.1 |
| 20260507165102 | 16 | 86 | 4.8 | 6.4 | 0.00 | 0.74 | 0.74 | 71 | 1000.4 |
| 20260507164558 | 16 | 321 | 4.8 | 6.4 | 0.00 | 0.74 | 0.74 | 70 | 1000.3 |
| 20260507164055 | 15 | 48 | 6.4 | 6.4 | 0.00 | 0.74 | 0.74 | 70 | 1000.4 |
| 20260507163552 | 16 | 289 | 0.0 | 6.4 | 0.00 | 0.74 | 0.74 | 71 | 1000.6 |
| 20260507163050 | 16 | 336 | 3.2 | 8.0 | 0.00 | 0.74 | 0.74 | 69 | 1000.4 |
| 20260507162550 | 15 | 297 | 4.8 | 14.5 | 0.00 | 0.74 | 0.74 | 74 | 1000.5 |
| 20260507162048 | 15 | 68 | 3.2 | 6.4 | 0.00 | 0.74 | 0.74 | 73 | 1000.2 |
| 20260507161544 | 15 | 228 | 3.2 | 6.4 | 0.00 | 0.74 | 0.74 | 73 | 1000.5 |
| 20260507161040 | 15 | 270 | 3.2 | 8.0 | 0.00 | 0.74 | 0.74 | 71 | 1000.3 |
| 20260507160537 | 15 | 273 | 4.8 | 11.3 | 0.00 | 0.74 | 0.74 | 71 | 1000.5 |
| 20260507160033 | 15 | 304 | 8.0 | 12.9 | 0.00 | 0.74 | 0.74 | 74 | 1000.3 |
| 20260507155529 | 15 | 247 | 8.0 | 11.3 | 0.00 | 0.74 | 0.74 | 76 | 1000.4 |
| 20260507155026 | 16 | 290 | 6.4 | 6.4 | 0.00 | 0.74 | 0.74 | 74 | 1000.6 |
| 20260507154522 | 15 | 241 | 4.8 | 6.4 | 0.00 | 0.74 | 0.74 | 74 | 1000.7 |
| 20260507154020 | 13 | 270 | 4.8 | 9.7 | 0.00 | 0.74 | 0.74 | 77 | 1001.0 |
| 20260507153516 | 15 | 18 | 0.0 | 6.4 | 0.00 | 0.74 | 0.74 | 75 | 1000.9 |
| 20260507153013 | 15 | 221 | 6.4 | 8.0 | 0.00 | 0.74 | 0.74 | 74 | 1001.2 |
| 20260507152508 | 15 | 244 | 6.4 | 8.0 | 0.00 | 0.74 | 0.74 | 76 | 1001.4 |
| 20260507152005 | 15 | 272 | 6.4 | 12.9 | 0.00 | 0.74 | 0.74 | 76 | 1001.1 |
| 20260507151501 | 15 | 90 | 0.0 | 8.0 | 0.00 | 0.74 | 0.74 | 75 | 1001.2 |
| 20260507150958 | 15 | 270 | 4.8 | 8.0 | 0.00 | 0.74 | 0.74 | 79 | 1001.0 |
| 20260507150455 | 15 | 274 | 4.8 | 8.0 | 0.00 | 0.74 | 0.74 | 75 | 1001.1 |
| 20260507145951 | 15 | 300 | 8.0 | 9.7 | 0.00 | 0.74 | 0.74 | 77 | 1001.2 |
| 20260507145447 | 13 | 219 | 4.8 | 6.4 | 0.00 | 0.74 | 0.74 | 81 | 1001.3 |
| 20260507144944 | 14 | 40 | 4.8 | 6.4 | 0.00 | 0.74 | 0.74 | 82 | 1001.4 |
| 20260507144441 | 12 | 252 | 4.8 | 9.7 | 0.00 | 0.74 | 0.74 | 82 | 1001.7 |
| 20260507143938 | 13 | 290 | 8.0 | 9.7 | 0.00 | 0.74 | 0.74 | 84 | 1001.5 |
| 20260507143436 | 12 | 274 | 3.2 | 6.4 | 0.00 | 0.74 | 0.74 | 85 | 1002.1 |
| 20260507142932 | 12 | 203 | 1.6 | 6.4 | 0.00 | 0.74 | 0.74 | 87 | 1001.7 |
| 20260507142428 | 13 | 259 | 4.8 | 9.7 | 0.00 | 0.74 | 0.74 | 88 | 1001.7 |
| 20260507141925 | 13 | 266 | 4.8 | 4.8 | 0.00 | 0.74 | 0.74 | 87 | 1001.6 |
| 20260507141421 | 12 | 286 | 0.0 | 8.0 | 0.00 | 0.74 | 0.74 | 87 | 1001.5 |
| 20260507140918 | 13 | 195 | 1.6 | 9.7 | 0.00 | 0.74 | 0.74 | 87 | 1001.4 |
| 20260507140415 | 13 | 241 | 3.2 | 6.4 | 0.00 | 0.74 | 0.74 | 86 | 1001.4 |
| 20260507135913 | 13 | 320 | 0.0 | 6.4 | 0.00 | 0.74 | 0.74 | 84 | 1001.6 |
| 20260507135409 | 13 | 276 | 0.0 | 6.4 | 0.00 | 0.74 | 0.74 | 86 | 1001.4 |
| 20260507134907 | 12 | 201 | 4.8 | 6.4 | 0.00 | 0.74 | 0.74 | 87 | 1001.4 |
| 20260507134403 | 13 | 279 | 0.0 | 8.0 | 0.00 | 0.74 | 0.74 | 88 | 1001.4 |
| 20260507133859 | 12 | 261 | 6.4 | 6.4 | 0.00 | 0.74 | 0.74 | 87 | 1001.1 |
| 20260507133354 | 12 | 281 | 3.2 | 8.0 | 0.00 | 0.74 | 0.74 | 88 | 1001.4 |
| 20260507132854 | 12 | 299 | 3.2 | 4.8 | 0.00 | 0.74 | 0.74 | 89 | 1001.3 |
| 20260507132349 | 12 | 51 | 6.4 | 6.4 | 0.00 | 0.74 | 0.74 | 90 | 1001.1 |
| 20260507131847 | 12 | 264 | 1.6 | 6.4 | 0.00 | 0.74 | 0.74 | 91 | 1001.2 |
| 20260507131343 | 12 | 280 | 4.8 | 8.0 | 0.00 | 0.74 | 0.74 | 91 | 1001.4 |
| 20260507130840 | 11 | 235 | 4.8 | 6.4 | 0.00 | 0.74 | 0.74 | 92 | 1001.5 |
| 20260507130336 | 12 | 208 | 3.2 | 6.4 | 0.00 | 0.74 | 0.74 | 94 | 1001.7 |
| 20260507125831 | 12 | 260 | 3.2 | 6.4 | 0.00 | 0.74 | 0.74 | 93 | 1001.6 |
| 20260507125327 | 12 | 238 | 4.8 | 6.4 | 0.00 | 0.74 | 0.74 | 94 | 1002.0 |
| 20260507124825 | 12 | 246 | 4.8 | 6.4 | 0.00 | 0.74 | 0.74 | 94 | 1002.0 |
| 20260507124321 | 12 | 241 | 3.2 | 4.8 | 0.00 | 0.74 | 0.74 | 94 | 1002.1 |
| 20260507123820 | 12 | 255 | 3.2 | 4.8 | 0.00 | 0.74 | 0.74 | 94 | 1002.1 |
| 20260507123316 | 12 | 279 | 3.2 | 8.0 | 0.00 | 0.74 | 0.74 | 94 | 1002.1 |
| 20260507122812 | 12 | 261 | 0.0 | 6.4 | 0.00 | 0.74 | 0.74 | 95 | 1001.8 |
| 20260507122308 | 12 | 291 | 0.0 | 8.0 | 0.00 | 0.74 | 0.74 | 95 | 1002.1 |
| 20260507121804 | 12 | 300 | 0.0 | 4.8 | 0.00 | 0.74 | 0.74 | 94 | 1001.6 |
| 20260507121301 | 12 | 289 | 8.0 | 8.0 | 0.00 | 0.74 | 0.74 | 93 | 1001.5 |
| 20260507120757 | 12 | 243 | 1.6 | 4.8 | 0.00 | 0.74 | 0.74 | 94 | 1002.0 |
| 20260507120253 | 12 | 266 | 4.8 | 4.8 | 0.00 | 0.74 | 0.74 | 93 | 1001.4 |
| 20260507115750 | 12 | 274 | 0.0 | 8.0 | 0.00 | 0.74 | 0.74 | 94 | 1001.3 |
| 20260507115245 | 12 | 345 | 0.0 | 4.8 | 0.00 | 0.74 | 0.74 | 93 | 1001.2 |
| 20260507114741 | 12 | 215 | 1.6 | 8.0 | 0.00 | 0.74 | 0.74 | 94 | 1001.5 |
| 20260507114239 | 11 | 249 | 4.8 | 9.7 | 0.00 | 0.74 | 0.74 | 95 | 1001.3 |
| 20260507113736 | 11 | 206 | 4.8 | 8.0 | 0.00 | 0.74 | 0.74 | 97 | 1001.2 |
| 20260507113233 | 11 | 242 | 6.4 | 6.4 | 0.00 | 0.74 | 0.74 | 98 | 1001.3 |
| 20260507112731 | 11 | 209 | 1.6 | 6.4 | 0.00 | 0.74 | 0.74 | 99 | 1001.3 |
| 20260507112227 | 11 | 203 | 1.6 | 6.4 | 0.00 | 0.74 | 0.74 | 99 | 1001.7 |
| 20260507111725 | 11 | 246 | 0.0 | 6.4 | 0.00 | 0.74 | 0.74 | 99 | 1001.4 |
| 20260507111221 | 11 | 225 | 3.2 | 6.4 | 0.00 | 0.74 | 0.74 | 99 | 1001.5 |
| 20260507110717 | 11 | 259 | 3.2 | 4.8 | 0.00 | 0.74 | 0.74 | 99 | 1001.3 |
| 20260507110214 | 11 | 234 | 4.8 | 8.0 | 0.00 | 0.74 | 0.74 | 99 | 1001.1 |
| 20260507105711 | 11 | 245 | 3.2 | 6.4 | 0.00 | 0.74 | 0.74 | 99 | 1001.2 |
| 20260507105207 | 11 | 270 | 0.0 | 4.8 | 0.00 | 0.74 | 0.74 | 99 | 1001.3 |
| 20260507104704 | 11 | 338 | 11.3 | 11.3 | 0.00 | 0.74 | 0.74 | 99 | 1001.2 |
| 20260507104201 | 11 | 246 | 4.8 | 6.4 | 0.00 | 0.74 | 0.74 | 99 | 1001.3 |
| 20260507103657 | 12 | 210 | 3.2 | 8.0 | 0.00 | 0.74 | 0.74 | 99 | 1001.5 |
| 20260507103153 | 11 | 254 | 4.8 | 6.4 | 0.00 | 0.74 | 0.74 | 99 | 1001.4 |
| 20260507102650 | 11 | 259 | 3.2 | 6.4 | 0.00 | 0.74 | 0.74 | 99 | 1000.9 |
| 20260507102146 | 11 | 270 | 4.8 | 4.8 | 0.00 | 0.74 | 0.74 | 99 | 1001.1 |
| 20260507101642 | 12 | 251 | 3.2 | 4.8 | 0.00 | 0.74 | 0.74 | 99 | 1000.9 |
| 20260507101138 | 11 | 270 | 3.2 | 3.2 | 0.00 | 0.74 | 0.74 | 99 | 1000.6 |
| 20260507100636 | 12 | 248 | 3.2 | 4.8 | 0.00 | 0.74 | 0.74 | 99 | 1000.4 |
| 20260507100134 | 12 | 210 | 3.2 | 4.8 | 0.00 | 0.74 | 0.74 | 99 | 1000.9 |
| 20260507095632 | 12 | 251 | 3.2 | 4.8 | 0.00 | 0.74 | 0.74 | 99 | 1000.8 |
| 20260507095128 | 12 | 236 | 3.2 | 3.2 | 0.00 | 0.74 | 0.74 | 99 | 1000.5 |
| 20260507094624 | 12 | 247 | 4.8 | 6.4 | 0.00 | 0.74 | 0.74 | 99 | 1000.7 |
| 20260507094121 | 12 | 251 | 3.2 | 8.0 | 0.00 | 0.74 | 0.74 | 99 | 1000.8 |
| 20260507093618 | 12 | 255 | 3.2 | 6.4 | 0.00 | 0.74 | 0.74 | 99 | 1000.7 |
| 20260507093117 | 12 | 235 | 4.8 | 6.4 | 0.00 | 0.74 | 0.74 | 99 | 1000.4 |
| 20260507092613 | 12 | 265 | 3.2 | 6.4 | 0.00 | 0.74 | 0.74 | 99 | 1000.3 |
| 20260507092110 | 12 | 227 | 4.8 | 6.4 | 0.00 | 0.74 | 0.74 | 99 | 1000.0 |
| 20260507091607 | 12 | 238 | 4.8 | 8.0 | 0.00 | 0.74 | 0.74 | 99 | 1000.2 |
| 20260507091103 | 12 | 231 | 4.8 | 6.4 | 0.05 | 0.74 | 0.74 | 99 | 1000.0 |
| 20260507090559 | 12 | 230 | 3.2 | 4.8 | 0.05 | 0.74 | 0.74 | 99 | 1000.0 |
| 20260507090056 | 12 | 206 | 1.6 | 4.8 | 0.00 | 0.71 | 0.71 | 99 | 999.9 |
| 20260507085553 | 12 | 233 | 3.2 | 6.4 | 0.00 | 0.71 | 0.71 | 99 | 999.8 |
| 20260507085049 | 12 | 188 | 0.0 | 4.8 | 0.00 | 0.71 | 0.71 | 99 | 999.7 |
| 20260507084546 | 12 | 243 | 1.6 | 4.8 | 0.00 | 0.71 | 0.71 | 99 | 999.7 |
| 20260507084043 | 13 | 227 | 4.8 | 6.4 | 0.00 | 0.71 | 0.71 | 99 | 999.8 |
| 20260507083539 | 13 | 216 | 4.8 | 4.8 | 0.13 | 0.71 | 0.71 | 99 | 999.4 |
| 20260507083037 | 13 | 219 | 3.2 | 4.8 | 0.30 | 0.71 | 0.71 | 99 | 999.3 |
| 20260507082532 | 13 | 254 | 0.0 | 3.2 | 0.36 | 0.69 | 0.69 | 99 | 999.1 |
| 20260507082029 | 13 | 240 | 0.0 | 3.2 | 0.23 | 0.66 | 0.66 | 99 | 999.2 |
| 20260507081525 | 13 | 217 | 0.0 | 3.2 | 0.30 | 0.64 | 0.64 | 99 | 999.5 |
| 20260507081023 | 13 | 194 | 1.6 | 8.0 | 0.48 | 0.61 | 0.61 | 99 | 999.4 |
| 20260507080518 | 13 | 219 | 4.8 | 6.4 | 0.71 | 0.56 | 0.56 | 99 | 999.5 |
| 20260507080015 | 13 | 204 | 3.2 | 4.8 | 0.66 | 0.51 | 0.51 | 99 | 999.7 |
| 20260507075510 | 13 | 220 | 4.8 | 8.0 | 0.30 | 0.43 | 0.43 | 99 | 1000.3 |
| 20260507075007 | 13 | 165 | 3.2 | 6.4 | 0.05 | 0.38 | 0.38 | 99 | 1000.0 |
| 20260507074503 | 13 | 194 | 0.0 | 12.9 | 0.00 | 0.38 | 0.38 | 99 | 999.6 |
| 20260507074002 | 13 | 218 | 4.8 | 8.0 | 0.05 | 0.38 | 0.38 | 99 | 999.6 |
| 20260507073458 | 13 | 208 | 3.2 | 6.4 | 0.05 | 0.38 | 0.38 | 99 | 999.4 |
| 20260507072954 | 13 | 217 | 3.2 | 6.4 | 0.00 | 0.38 | 0.38 | 99 | 999.3 |
| 20260507072452 | 13 | 220 | 4.8 | 4.8 | 0.00 | 0.38 | 0.38 | 99 | 999.3 |
| 20260507071949 | 13 | 222 | 4.8 | 6.4 | 0.05 | 0.38 | 0.38 | 99 | 999.3 |
| 20260507071446 | 13 | 220 | 4.8 | 6.4 | 0.36 | 0.38 | 0.38 | 99 | 999.5 |
| 20260507070943 | 13 | 192 | 3.2 | 6.4 | 0.48 | 0.36 | 0.36 | 99 | 999.5 |
| 20260507070440 | 13 | 232 | 3.2 | 14.5 | 0.36 | 0.30 | 0.30 | 99 | 999.5 |
| 20260507065936 | 13 | 225 | 4.8 | 9.7 | 0.43 | 0.28 | 0.28 | 99 | 999.6 |
| 20260507065433 | 13 | 214 | 4.8 | 11.3 | 0.23 | 0.23 | 0.23 | 99 | 999.8 |
| 20260507064925 | 13 | 241 | 4.8 | 9.7 | 0.36 | 0.20 | 0.20 | 99 | 999.5 |
| 20260507064423 | 13 | 212 | 6.4 | 6.4 | 0.30 | 0.18 | 0.18 | 99 | 999.8 |
| 20260507063921 | 13 | 210 | 3.2 | 8.0 | 0.13 | 0.15 | 0.15 | 99 | 999.5 |
| 20260507063417 | 13 | 261 | 3.2 | 8.0 | 0.13 | 0.13 | 0.13 | 99 | 999.8 |
| 20260507062915 | 13 | 168 | 4.8 | 12.9 | 0.05 | 0.13 | 0.13 | 99 | 999.9 |
| 20260507062411 | 13 | 226 | 8.0 | 14.5 | 0.05 | 0.10 | 0.10 | 99 | 999.7 |
| 20260507061909 | 13 | 214 | 8.0 | 16.1 | 0.18 | 0.10 | 0.10 | 99 | 999.6 |
| 20260507061407 | 14 | 185 | 3.2 | 9.7 | 0.18 | 0.10 | 0.10 | 99 | 999.7 |
| 20260507060905 | 14 | 240 | 4.8 | 11.3 | 0.05 | 0.08 | 0.08 | 99 | 999.8 |
| 20260507060401 | 14 | 239 | 3.2 | 14.5 | 0.05 | 0.08 | 0.08 | 99 | 999.9 |
| 20260507055858 | 14 | 302 | 4.8 | 17.7 | 0.00 | 0.05 | 0.05 | 99 | 999.7 |
| 20260507055353 | 14 | 206 | 9.7 | 20.9 | 0.00 | 0.05 | 0.05 | 99 | 999.6 |
| 20260507054850 | 14 | 230 | 9.7 | 14.5 | 0.00 | 0.05 | 0.05 | 99 | 999.6 |
| 20260507054346 | 15 | 237 | 8.0 | 14.5 | 0.00 | 0.05 | 0.05 | 99 | 999.5 |
| 20260507053844 | 15 | 0 | 1.6 | 14.5 | 0.00 | 0.05 | 0.05 | 99 | 999.7 |
| 20260507053341 | 15 | 225 | 17.7 | 19.3 | 0.00 | 0.05 | 0.05 | 99 | 999.7 |
| 20260507052840 | 15 | 218 | 8.0 | 20.9 | 0.00 | 0.05 | 0.05 | 99 | 999.9 |
| 20260507052336 | 15 | 180 | 3.2 | 19.3 | 0.00 | 0.05 | 0.05 | 99 | 999.9 |
| 20260507051834 | 15 | 235 | 8.0 | 19.3 | 0.05 | 0.05 | 0.05 | 99 | 999.9 |
| 20260507051331 | 15 | 214 | 6.4 | 14.5 | 0.05 | 0.05 | 0.05 | 99 | 1000.2 |
| 20260507050828 | 15 | 254 | 8.0 | 24.1 | 0.13 | 0.05 | 0.05 | 99 | 1000.4 |
| 20260507050324 | 15 | 176 | 6.4 | 11.3 | 0.05 | 0.05 | 0.05 | 99 | 1000.6 |
| 20260507045822 | 15 | 228 | 16.1 | 16.1 | 0.00 | 0.03 | 0.03 | 99 | 1000.5 |
| 20260507045318 | 15 | 143 | 6.4 | 17.7 | 0.00 | 0.03 | 0.03 | 99 | 1000.9 |
| 20260507044815 | 15 | 210 | 8.0 | 8.0 | 0.00 | 0.03 | 0.03 | 99 | 1000.7 |
| 20260507044312 | 15 | 186 | 6.4 | 14.5 | 0.00 | 0.03 | 0.03 | 99 | 1001.0 |
| 20260507043808 | 15 | 206 | 8.0 | 12.9 | 0.05 | 0.03 | 0.03 | 99 | 1001.3 |
| 20260507043305 | 15 | 168 | 12.9 | 19.3 | 0.00 | 0.03 | 0.03 | 99 | 1001.4 |
| 20260507042801 | 15 | 233 | 14.5 | 14.5 | 0.00 | 0.03 | 0.03 | 99 | 1001.2 |
| 20260507042256 | 15 | 227 | 4.8 | 19.3 | 0.00 | 0.03 | 0.03 | 99 | 1001.5 |
| 20260507041754 | 15 | 209 | 4.8 | 17.7 | 0.05 | 0.03 | 0.03 | 99 | 1001.6 |
| 20260507041250 | 15 | 213 | 11.3 | 19.3 | 0.05 | 0.03 | 0.03 | 99 | 1001.8 |
| 20260507040747 | 15 | 182 | 4.8 | 12.9 | 0.00 | 0.00 | 0.00 | 99 | 1001.8 |
| 20260507040243 | 15 | 225 | 9.7 | 29.0 | 0.00 | 0.00 | 0.00 | 99 | 1001.7 |
| 20260507035739 | 15 | 216 | 3.2 | 17.7 | 0.00 | 0.00 | 0.00 | 99 | 1001.8 |
| 20260507035235 | 15 | 232 | 8.0 | 17.7 | 0.00 | 0.00 | 0.00 | 99 | 1002.3 |
| 20260507034733 | 15 | 202 | 6.4 | 14.5 | 0.05 | 0.00 | 0.00 | 98 | 1001.9 |
| 20260507034229 | 15 | 246 | 3.2 | 11.3 | 0.05 | 0.00 | 0.00 | 98 | 1002.2 |
| 20260507033728 | 15 | 213 | 3.2 | 12.9 | 0.00 | 0.00 | 0.00 | 97 | 1002.3 |
| 20260507033225 | 15 | 199 | 4.8 | 8.0 | 0.00 | 0.00 | 0.00 | 97 | 1002.5 |
| 20260507032722 | 15 | 132 | 3.2 | 19.3 | 0.00 | 0.00 | 0.00 | 97 | 1002.7 |
| 20260507032218 | 16 | 145 | 0.0 | 6.4 | 0.00 | 0.00 | 0.00 | 97 | 1002.7 |
| 20260507031715 | 16 | 164 | 0.0 | 11.3 | 0.00 | 0.00 | 0.00 | 97 | 1002.9 |
| 20260507031212 | 16 | 214 | 6.4 | 12.9 | 0.00 | 0.00 | 0.00 | 97 | 1002.8 |
| 20260507030708 | 16 | 218 | 8.0 | 19.3 | 0.00 | 0.00 | 0.00 | 97 | 1003.0 |
| 20260507030206 | 16 | 243 | 3.2 | 16.1 | 0.00 | 0.00 | 0.00 | 97 | 1003.2 |
| 20260507025703 | 16 | 241 | 8.0 | 12.9 | 0.00 | 0.00 | 0.00 | 97 | 1003.5 |
| 20260507025200 | 15 | 187 | 3.2 | 14.5 | 0.00 | 0.00 | 0.00 | 97 | 1003.7 |
| 20260507024658 | 15 | 261 | 0.0 | 9.7 | 0.00 | 0.00 | 0.00 | 97 | 1003.6 |
| 20260507024155 | 16 | 220 | 4.8 | 12.9 | 0.00 | 0.00 | 0.00 | 96 | 1003.9 |
| 20260507023650 | 16 | 180 | 3.2 | 14.5 | 0.00 | 0.00 | 0.00 | 96 | 1004.0 |
| 20260507023148 | 16 | 151 | 4.8 | 9.7 | 0.00 | 0.00 | 0.00 | 96 | 1004.2 |
| 20260507022644 | 16 | 202 | 6.4 | 17.7 | 0.00 | 0.08 | 0.08 | 95 | 1004.2 |
| 20260507022135 | 16 | 11 | 1.6 | 14.5 | 0.00 | 0.08 | 0.08 | 95 | 1004.1 |
| 20260507021631 | 16 | 173 | 4.8 | 17.7 | 0.00 | 0.08 | 0.08 | 95 | 1004.1 |
| 20260507021127 | 16 | 184 | 12.9 | 20.9 | 0.00 | 0.08 | 0.08 | 95 | 1004.2 |
| 20260507020625 | 16 | 222 | 8.0 | 29.0 | 0.00 | 0.08 | 0.08 | 95 | 1004.2 |
| 20260507020121 | 16 | 238 | 4.8 | 17.7 | 0.00 | 0.08 | 0.08 | 95 | 1004.4 |
| 20260507015620 | 16 | 217 | 6.4 | 19.3 | 0.00 | 0.08 | 0.08 | 95 | 1004.5 |
| 20260507015117 | 16 | 215 | 6.4 | 12.9 | 0.00 | 0.08 | 0.08 | 95 | 1004.5 |
| 20260507014613 | 16 | 240 | 0.0 | 17.7 | 0.00 | 0.08 | 0.08 | 95 | 1004.5 |
| 20260507014109 | 16 | 191 | 6.4 | 14.5 | 0.00 | 0.08 | 0.08 | 95 | 1004.7 |
| 20260507013606 | 16 | 186 | 8.0 | 24.1 | 0.00 | 0.08 | 0.08 | 95 | 1004.6 |
| 20260507013103 | 15 | 152 | 4.8 | 17.7 | 0.00 | 0.08 | 0.08 | 95 | 1005.0 |
| 20260507012601 | 15 | 234 | 9.7 | 19.3 | 0.00 | 0.08 | 0.08 | 95 | 1005.2 |
| 20260507012056 | 15 | 260 | 14.5 | 17.7 | 0.00 | 0.08 | 0.08 | 95 | 1005.2 |
| 20260507011554 | 15 | 175 | 11.3 | 17.7 | 0.00 | 0.08 | 0.08 | 95 | 1005.4 |
| 20260507011050 | 15 | 245 | 8.0 | 12.9 | 0.00 | 0.08 | 0.08 | 96 | 1005.5 |
| 20260507010544 | 15 | 213 | 11.3 | 25.7 | 0.00 | 0.08 | 0.08 | 96 | 1005.8 |
| 20260507010041 | 15 | 150 | 6.4 | 17.7 | 0.00 | 0.08 | 0.08 | 96 | 1005.6 |
| 20260507005539 | 15 | 90 | 3.2 | 14.5 | 0.00 | 0.08 | 0.08 | 96 | 1005.3 |
| 20260507005035 | 15 | 238 | 8.0 | 16.1 | 0.00 | 0.08 | 0.08 | 96 | 1005.6 |
| 20260507004532 | 15 | 192 | 4.8 | 14.5 | 0.00 | 0.08 | 0.08 | 96 | 1006.0 |
| 20260507004030 | 15 | 210 | 4.8 | 16.1 | 0.00 | 0.08 | 0.08 | 96 | 1006.1 |
| 20260507003525 | 15 | 135 | 9.7 | 19.3 | 0.00 | 0.08 | 0.08 | 95 | 1006.1 |
| 20260507003020 | 15 | 230 | 6.4 | 12.9 | 0.00 | 0.08 | 0.08 | 95 | 1006.2 |
| 20260507002517 | 15 | 219 | 3.2 | 25.7 | 0.00 | 0.08 | 0.08 | 95 | 1006.4 |
| 20260507002013 | 15 | 248 | 6.4 | 29.0 | 0.00 | 0.08 | 0.08 | 95 | 1006.3 |
| 20260507001510 | 15 | 203 | 6.4 | 14.5 | 0.00 | 0.08 | 0.08 | 96 | 1006.4 |
| 20260507001008 | 15 | 188 | 9.7 | 17.7 | 0.00 | 0.08 | 0.08 | 96 | 1006.2 |
| 20260507000503 | 15 | 212 | 4.8 | 8.0 | 0.00 | 0.08 | 0.08 | 96 | 1006.3 |
| 20260506235958 | 15 | 176 | 6.4 | 8.0 | 0.00 | 0.08 | 0.08 | 96 | 1006.5 |
| 20260506235456 | 15 | 195 | 6.4 | 6.4 | 0.00 | 0.08 | 0.08 | 96 | 1006.7 |
| 20260506234952 | 15 | 204 | 6.4 | 20.9 | 0.00 | 0.08 | 0.08 | 97 | 1006.9 |
| 20260506234449 | 15 | 227 | 4.8 | 9.7 | 0.00 | 0.08 | 0.08 | 96 | 1006.6 |
| 20260506233947 | 15 | 212 | 4.8 | 11.3 | 0.00 | 0.08 | 0.08 | 95 | 1006.7 |
| 20260506233443 | 15 | 192 | 3.2 | 19.3 | 0.00 | 0.08 | 0.08 | 95 | 1006.7 |
| 20260506232940 | 15 | 205 | 6.4 | 16.1 | 0.00 | 0.08 | 0.08 | 95 | 1007.1 |
| 20260506232436 | 15 | 212 | 9.7 | 24.1 | 0.00 | 0.08 | 0.08 | 94 | 1006.8 |
| 20260506231932 | 16 | 241 | 8.0 | 27.4 | 0.00 | 0.08 | 0.08 | 94 | 1006.7 |
| 20260506231430 | 16 | 83 | 4.8 | 17.7 | 0.00 | 0.08 | 0.08 | 95 | 1006.9 |
| 20260506230927 | 16 | 184 | 3.2 | 14.5 | 0.00 | 0.08 | 0.08 | 94 | 1006.9 |
| 20260506230423 | 16 | 218 | 3.2 | 22.5 | 0.00 | 0.08 | 0.08 | 94 | 1006.6 |
| 20260506225920 | 16 | 210 | 3.2 | 29.0 | 0.00 | 0.08 | 0.08 | 94 | 1006.6 |
| 20260506225417 | 16 | 255 | 3.2 | 11.3 | 0.00 | 0.08 | 0.08 | 94 | 1007.1 |
| 20260506224914 | 16 | 249 | 8.0 | 16.1 | 0.00 | 0.08 | 0.08 | 93 | 1006.8 |
| 20260506224411 | 16 | 209 | 9.7 | 22.5 | 0.00 | 0.08 | 0.08 | 93 | 1007.0 |
| 20260506223907 | 16 | 190 | 8.0 | 11.3 | 0.00 | 0.08 | 0.08 | 93 | 1006.5 |
| 20260506223403 | 16 | 161 | 6.4 | 22.5 | 0.00 | 0.08 | 0.08 | 93 | 1007.0 |
| 20260506222900 | 16 | 239 | 6.4 | 11.3 | 0.00 | 0.08 | 0.08 | 93 | 1007.2 |
| 20260506222356 | 16 | 185 | 3.2 | 6.4 | 0.00 | 0.08 | 0.08 | 93 | 1007.0 |
| 20260506221854 | 16 | 243 | 6.4 | 14.5 | 0.00 | 0.08 | 0.08 | 92 | 1006.8 |
| 20260506221351 | 16 | 239 | 4.8 | 11.3 | 0.00 | 0.08 | 0.08 | 92 | 1007.0 |
| 20260506220848 | 16 | 202 | 8.0 | 12.9 | 0.00 | 0.08 | 0.08 | 92 | 1006.8 |
| 20260506220343 | 16 | 220 | 4.8 | 9.7 | 0.00 | 0.08 | 0.08 | 92 | 1006.9 |
| 20260506215841 | 16 | 225 | 4.8 | 16.1 | 0.00 | 0.08 | 0.08 | 92 | 1006.3 |
| 20260506215336 | 16 | 206 | 8.0 | 25.7 | 0.00 | 0.08 | 0.08 | 92 | 1006.4 |
| 20260506214833 | 16 | 223 | 6.4 | 14.5 | 0.00 | 0.08 | 0.08 | 92 | 1007.0 |
| 20260506214329 | 16 | 180 | 4.8 | 24.1 | 0.00 | 0.08 | 0.08 | 92 | 1006.3 |
| 20260506213828 | 16 | 224 | 12.9 | 17.7 | 0.00 | 0.08 | 0.08 | 92 | 1006.3 |
| 20260506213325 | 16 | 270 | 8.0 | 12.9 | 0.00 | 0.08 | 0.08 | 91 | 1006.5 |
| 20260506212822 | 16 | 182 | 11.3 | 20.9 | 0.00 | 0.08 | 0.08 | 91 | 1006.5 |
| 20260506212318 | 16 | 221 | 17.7 | 17.7 | 0.00 | 0.08 | 0.08 | 91 | 1006.5 |
| 20260506211813 | 16 | 241 | 9.7 | 20.9 | 0.00 | 0.08 | 0.08 | 91 | 1006.7 |
| 20260506211309 | 16 | 161 | 4.8 | 27.4 | 0.00 | 0.08 | 0.08 | 91 | 1006.6 |
| 20260506210807 | 16 | 207 | 9.7 | 20.9 | 0.00 | 0.08 | 0.08 | 91 | 1006.6 |
| 20260506210303 | 16 | 194 | 6.4 | 16.1 | 0.00 | 0.08 | 0.08 | 90 | 1006.8 |
| 20260506205800 | 16 | 217 | 6.4 | 30.6 | 0.00 | 0.08 | 0.08 | 90 | 1006.6 |
| 20260506205256 | 16 | 219 | 4.8 | 17.7 | 0.00 | 0.08 | 0.08 | 90 | 1006.6 |
| 20260506204753 | 17 | 181 | 8.0 | 22.5 | 0.00 | 0.08 | 0.08 | 90 | 1006.5 |
| 20260506204251 | 17 | 191 | 11.3 | 12.9 | 0.00 | 0.08 | 0.08 | 90 | 1006.6 |
| 20260506203748 | 17 | 355 | 3.2 | 17.7 | 0.00 | 0.08 | 0.08 | 90 | 1006.5 |
| 20260506203245 | 16 | 247 | 9.7 | 11.3 | 0.00 | 0.08 | 0.08 | 90 | 1006.6 |
| 20260506202743 | 17 | 134 | 22.5 | 22.5 | 0.00 | 0.08 | 0.08 | 90 | 1006.7 |
| 20260506202239 | 16 | 186 | 6.4 | 25.7 | 0.00 | 0.08 | 0.08 | 90 | 1006.8 |
| 20260506201736 | 16 | 218 | 8.0 | 20.9 | 0.00 | 0.08 | 0.08 | 90 | 1006.6 |
| 20260506201232 | 16 | 213 | 8.0 | 17.7 | 0.00 | 0.08 | 0.08 | 90 | 1006.8 |
| 20260506200729 | 16 | 208 | 8.0 | 24.1 | 0.00 | 0.08 | 0.08 | 90 | 1006.7 |
| 20260506200226 | 16 | 214 | 9.7 | 17.7 | 0.00 | 0.08 | 0.08 | 90 | 1006.8 |
| 20260506195722 | 16 | 156 | 6.4 | 29.0 | 0.00 | 0.08 | 0.08 | 90 | 1006.8 |
| 20260506195219 | 16 | 233 | 11.3 | 11.3 | 0.00 | 0.08 | 0.08 | 90 | 1006.9 |
| 20260506194716 | 16 | 223 | 6.4 | 22.5 | 0.00 | 0.08 | 0.08 | 90 | 1006.8 |
| 20260506194212 | 16 | 215 | 4.8 | 20.9 | 0.00 | 0.08 | 0.08 | 91 | 1006.7 |
| 20260506193710 | 16 | 182 | 24.1 | 32.2 | 0.00 | 0.08 | 0.08 | 91 | 1007.0 |
| 20260506193207 | 16 | 197 | 11.3 | 24.1 | 0.00 | 0.08 | 0.08 | 90 | 1007.0 |
| 20260506192658 | 16 | 267 | 4.8 | 11.3 | 0.00 | 0.08 | 0.08 | 91 | 1006.9 |
| 20260506192154 | 16 | 196 | 12.9 | 14.5 | 0.00 | 0.08 | 0.08 | 90 | 1006.8 |
| 20260506191652 | 16 | 297 | 1.6 | 33.8 | 0.00 | 0.08 | 0.08 | 90 | 1006.9 |
| 20260506191148 | 16 | 218 | 8.0 | 24.1 | 0.00 | 0.08 | 0.08 | 90 | 1006.9 |
| 20260506190645 | 16 | 192 | 8.0 | 27.4 | 0.00 | 0.08 | 0.08 | 90 | 1007.0 |
| 20260506190142 | 16 | 192 | 8.0 | 16.1 | 0.00 | 0.08 | 0.08 | 91 | 1007.0 |
| 20260506185639 | 16 | 200 | 12.9 | 17.7 | 0.00 | 0.08 | 0.08 | 90 | 1007.0 |
| 20260506185135 | 16 | 246 | 0.0 | 30.6 | 0.00 | 0.08 | 0.08 | 90 | 1007.0 |
| 20260506184632 | 16 | 166 | 8.0 | 27.4 | 0.00 | 0.08 | 0.08 | 90 | 1007.0 |
| 20260506184130 | 16 | 190 | 3.2 | 11.3 | 0.00 | 0.08 | 0.08 | 90 | 1006.9 |
| 20260506183626 | 16 | 196 | 11.3 | 38.6 | 0.00 | 0.08 | 0.08 | 90 | 1006.8 |
| 20260506183122 | 16 | 230 | 12.9 | 19.3 | 0.00 | 0.08 | 0.08 | 91 | 1007.1 |
| 20260506182620 | 16 | 205 | 14.5 | 25.7 | 0.00 | 0.08 | 0.08 | 90 | 1006.8 |
| 20260506182117 | 15 | 209 | 8.0 | 17.7 | 0.00 | 0.08 | 0.08 | 91 | 1007.0 |
| 20260506181615 | 16 | 202 | 8.0 | 33.8 | 0.00 | 0.08 | 0.08 | 91 | 1007.1 |
| 20260506181112 | 15 | 204 | 17.7 | 17.7 | 0.00 | 0.08 | 0.08 | 91 | 1007.3 |
| 20260506180608 | 16 | 221 | 0.0 | 12.9 | 0.00 | 0.08 | 0.08 | 90 | 1007.2 |
| 20260506180105 | 15 | 216 | 9.7 | 20.9 | 0.00 | 0.08 | 0.08 | 91 | 1007.2 |
| 20260506175601 | 15 | 227 | 11.3 | 17.7 | 0.00 | 0.08 | 0.08 | 91 | 1007.4 |
| 20260506175057 | 15 | 198 | 20.9 | 24.1 | 0.00 | 0.08 | 0.08 | 91 | 1007.6 |